EW8543 Weather Reports


time (UTC)temp
C
wind
direction
speed
KPH
gust
KPH
rain 1hr
cm
rain 24hr
cm
rain mn
cm
humidity
%
barometer
mb
20260506203542 12 40 4.8 12.9 0.00 0.00 0.00 67 1012.8
20260506203031 12 360 4.8 16.1 0.00 0.00 0.00 67 1012.8
20260506202540 12 15 4.8 16.1 0.00 0.00 0.00 67 1012.7
20260506202027 12 335 4.8 16.1 0.00 0.00 0.00 67 1012.6
20260506201536 12 341 4.8 14.5 0.00 0.00 0.00 67 1012.6
20260506201040 12 341 4.8 14.5 0.00 0.00 0.00 69 1012.6
20260506200529 12 34 3.2 9.7 0.00 0.00 0.00 70 1012.5
20260506200028 12 9 4.8 9.7 0.00 0.00 0.00 70 1012.5
20260506195536 12 17 3.2 12.9 0.00 0.00 0.00 70 1012.4
20260506195025 12 355 3.2 12.9 0.00 0.00 0.00 70 1012.3
20260506194549 12 344 4.8 12.9 0.00 0.00 0.00 72 1012.2
20260506194037 12 17 4.8 12.9 0.00 0.00 0.00 73 1012.2
20260506193527 12 32 3.2 12.9 0.00 0.00 0.00 73 1012.2
20260506193036 12 355 6.4 14.5 0.00 0.00 0.00 72 1012.2
20260506192525 12 350 6.4 14.5 0.00 0.00 0.00 73 1012.1
20260506192027 12 346 8.0 16.1 0.00 0.00 0.00 72 1012.0
20260506191536 12 346 8.0 16.1 0.00 0.00 0.00 72 1011.9
20260506191024 12 17 3.2 17.7 0.00 0.00 0.00 73 1011.9
20260506190533 12 298 6.4 17.7 0.00 0.00 0.00 73 1011.9
20260506190030 12 336 8.0 20.9 0.00 0.00 0.00 73 1011.8
20260506185540 12 355 6.4 20.9 0.00 0.00 0.00 73 1011.7
20260506185028 12 15 8.0 17.7 0.00 0.00 0.00 73 1011.6
20260506184558 12 19 6.4 17.7 0.00 0.00 0.00 73 1011.6
20260506184044 12 5 6.4 20.9 0.00 0.00 0.00 73 1011.5
20260506183548 12 25 8.0 20.9 0.00 0.00 0.00 74 1011.5
20260506183035 12 28 4.8 19.3 0.00 0.00 0.00 74 1011.4
20260506182524 12 23 6.4 22.5 0.00 0.00 0.00 74 1011.3
20260506182032 12 9 12.9 22.5 0.00 0.00 0.00 74 1011.2
20260506181538 12 355 11.3 19.3 0.00 0.00 0.00 74 1011.2
20260506181025 12 11 6.4 17.7 0.00 0.00 0.00 75 1011.1
20260506180535 12 351 9.7 19.3 0.00 0.00 0.00 75 1011.1
20260506180036 12 5 9.7 20.9 0.00 0.00 0.00 74 1011.1
20260506175525 12 13 8.0 20.9 0.00 0.00 0.00 74 1011.1
20260506175029 12 9 11.3 20.9 0.00 0.00 0.00 74 1011.0
20260506174538 12 9 11.3 24.1 0.00 0.00 0.00 74 1010.9
20260506174026 12 15 11.3 24.1 0.00 0.00 0.00 74 1010.8
20260506173535 12 344 11.3 22.5 0.00 0.00 0.00 75 1010.8
20260506173058 12 29 9.7 24.1 0.00 0.00 0.00 75 1010.8
20260506172527 12 16 9.7 27.4 0.00 0.00 0.00 75 1010.7
20260506172037 12 328 11.3 27.4 0.00 0.00 0.00 74 1010.7
20260506171525 12 317 8.0 22.5 0.00 0.00 0.00 75 1010.6
20260506171054 12 342 12.9 22.5 0.00 0.00 0.00 75 1010.6
20260506170538 12 333 14.5 20.9 0.00 0.00 0.00 75 1010.6
20260506170058 12 355 9.7 24.1 0.00 0.00 0.00 75 1010.5
20260506165545 12 9 12.9 24.1 0.00 0.00 0.00 75 1010.5
20260506165031 12 347 12.9 22.5 0.00 0.00 0.00 75 1010.5
20260506164534 12 5 9.7 24.1 0.00 0.00 0.00 75 1010.6
20260506164023 12 5 9.7 25.7 0.00 0.00 0.00 75 1010.5
20260506163552 12 360 14.5 25.7 0.00 0.00 0.00 75 1010.5
20260506163038 12 355 12.9 20.9 0.00 0.00 0.00 75 1010.5
20260506162527 12 24 11.3 24.1 0.00 0.00 0.00 75 1010.4
20260506162028 12 355 12.9 24.1 0.00 0.00 0.00 75 1010.5
20260506161537 12 331 11.3 22.5 0.00 0.00 0.00 75 1010.4
20260506161026 13 360 9.7 24.1 0.00 0.00 0.00 74 1010.4
20260506160536 13 338 9.7 24.1 0.00 0.00 0.00 73 1010.5
20260506160034 13 54 9.7 20.9 0.00 0.00 0.00 73 1010.4
20260506155542 13 346 11.3 27.4 0.00 0.00 0.00 73 1010.3
20260506155049 13 355 16.1 30.6 0.00 0.00 0.00 72 1010.4
20260506154537 13 22 8.0 30.6 0.00 0.00 0.00 72 1010.4
20260506154022 13 34 11.3 29.0 0.00 0.00 0.00 72 1010.4
20260506153546 13 29 14.5 32.2 0.00 0.00 0.00 72 1010.4
20260506153034 13 339 17.7 32.2 0.00 0.00 0.00 71 1010.4
20260506152522 13 12 19.3 32.2 0.00 0.00 0.00 70 1010.3
20260506152030 13 355 14.5 32.2 0.00 0.00 0.00 71 1010.3
20260506151534 13 5 16.1 33.8 0.00 0.00 0.00 71 1010.3
20260506151022 13 33 17.7 33.8 0.00 0.00 0.00 70 1010.3
20260506150532 13 360 11.3 35.4 0.00 0.00 0.00 70 1010.3
20260506150054 13 5 19.3 35.4 0.00 0.00 0.00 70 1010.2
20260506145540 14 11 19.3 32.2 0.00 0.00 0.00 68 1010.2
20260506145025 13 19 16.1 25.7 0.00 0.00 0.00 70 1010.1
20260506144534 13 303 12.9 29.0 0.00 0.00 0.00 70 1010.2
20260506144024 14 324 14.5 29.0 0.00 0.00 0.00 68 1010.2
20260506143559 14 329 14.5 30.6 0.00 0.00 0.00 68 1010.2
20260506143027 13 13 19.3 30.6 0.00 0.00 0.00 70 1010.2
20260506142532 14 12 12.9 27.4 0.00 0.00 0.00 69 1010.3
20260506142039 15 337 11.3 29.0 0.00 0.00 0.00 68 1010.3
20260506141526 15 340 16.1 29.0 0.00 0.00 0.00 69 1010.3
20260506141029 15 342 12.9 27.4 0.00 0.00 0.00 70 1010.1
20260506140534 15 15 14.5 30.6 0.00 0.00 0.00 71 1010.3
20260506140057 14 350 17.7 30.6 0.00 0.00 0.00 71 1010.3
20260506135525 15 25 16.1 30.6 0.00 0.00 0.00 71 1010.2
20260506135034 15 355 19.3 33.8 0.00 0.00 0.00 71 1010.3
20260506134543 15 11 16.1 33.8 0.00 0.00 0.00 71 1010.2
20260506134026 15 348 16.1 27.4 0.00 0.00 0.00 71 1010.2
20260506133535 15 21 14.5 25.7 0.00 0.00 0.00 72 1010.2
20260506133022 14 332 9.7 29.0 0.00 0.00 0.00 73 1010.2
20260506132531 13 14 19.3 29.0 0.00 0.00 0.00 75 1010.2
20260506132059 13 45 12.9 27.4 0.00 0.00 0.00 75 1010.2
20260506131528 13 346 16.1 27.4 0.00 0.00 0.00 74 1010.2
20260506131101 13 360 12.9 24.1 0.00 0.00 0.00 73 1010.1
20260506130530 14 296 11.3 25.7 0.00 0.00 0.00 73 1010.2
20260506130032 14 302 12.9 30.6 0.00 0.00 0.00 73 1010.1
20260506125538 14 22 14.5 30.6 0.00 0.00 0.00 73 1010.0
20260506125027 14 346 12.9 29.0 0.00 0.00 0.00 73 1010.1
20260506124556 14 14 14.5 29.0 0.00 0.00 0.00 72 1010.0
20260506124022 14 5 12.9 27.4 0.00 0.00 0.00 74 1010.0
20260506123528 13 284 12.9 27.4 0.00 0.00 0.00 75 1010.0
20260506123056 13 355 14.5 27.4 0.00 0.00 0.00 74 1009.9
20260506122525 13 5 16.1 27.4 0.00 0.00 0.00 75 1010.0
20260506122031 13 355 14.5 29.0 0.00 0.00 0.00 74 1010.0
20260506121540 13 317 11.3 29.0 0.00 0.00 0.00 74 1010.0
20260506121026 13 351 14.5 27.4 0.00 0.00 0.00 73 1010.0
20260506120555 13 333 16.1 27.4 0.00 0.00 0.00 73 1009.9
20260506120036 13 355 14.5 24.1 0.00 0.00 0.00 73 1009.9
20260506115524 13 48 14.5 24.1 0.00 0.00 0.00 73 1009.9
20260506115029 13 355 16.1 27.4 0.00 0.00 0.00 72 1009.8
20260506114538 13 360 16.1 27.4 0.00 0.00 0.00 72 1009.9
20260506114025 13 341 11.3 25.7 0.00 0.00 0.00 73 1009.9
20260506113533 13 333 12.9 25.7 0.00 0.00 0.00 73 1009.8
20260506113041 13 355 11.3 25.7 0.00 0.00 0.00 72 1009.9
20260506112526 14 355 14.5 25.7 0.00 0.00 0.00 70 1009.8
20260506112054 14 355 14.5 29.0 0.00 0.00 0.00 71 1009.9
20260506111521 14 11 16.1 29.0 0.00 0.00 0.00 72 1009.8
20260506111031 13 355 8.0 27.4 0.00 0.00 0.00 74 1009.8
20260506110540 13 300 17.7 32.2 0.00 0.00 0.00 73 1009.9
20260506110037 13 38 17.7 32.2 0.00 0.00 0.00 74 1009.8
20260506105527 13 346 9.7 27.4 0.00 0.00 0.00 75 1009.9
20260506105034 13 325 14.5 29.0 0.00 0.00 0.00 74 1009.9
20260506104523 13 20 17.7 29.0 0.00 0.00 0.00 74 1009.9
20260506104030 13 15 16.1 30.6 0.00 0.00 0.00 73 1009.8
20260506103559 14 332 16.1 30.6 0.00 0.00 0.00 74 1009.8
20260506103048 14 5 12.9 24.1 0.00 0.00 0.00 74 1009.8
20260506102556 13 290 14.5 30.6 0.00 0.00 0.00 74 1009.8
20260506102023 13 309 17.7 30.6 0.00 0.00 0.00 74 1009.7
20260506101527 13 285 14.5 27.4 0.00 0.00 0.00 74 1009.7
20260506101035 13 25 17.7 27.4 0.00 0.00 0.00 73 1009.7
20260506100523 13 355 16.1 27.4 0.00 0.00 0.00 72 1009.7
20260506100025 14 360 11.3 20.9 0.00 0.00 0.00 71 1009.7
20260506095549 14 28 11.3 20.9 0.00 0.00 0.00 71 1009.7
20260506095037 14 28 11.3 29.0 0.00 0.00 0.00 71 1009.7
20260506094525 13 337 12.9 29.0 0.00 0.00 0.00 72 1009.7
20260506094032 13 350 14.5 22.5 0.00 0.00 0.00 72 1009.7
20260506093540 13 321 11.3 22.5 0.00 0.00 0.00 73 1009.7
20260506093024 13 44 11.3 22.5 0.00 0.00 0.00 74 1009.7
20260506092533 13 350 9.7 24.1 0.00 0.00 0.00 76 1009.6
20260506092041 13 348 14.5 27.4 0.00 0.00 0.00 76 1009.6
20260506091529 13 325 14.5 27.4 0.00 0.00 0.00 76 1009.6
20260506091052 13 42 9.7 25.7 0.00 0.00 0.00 77 1009.6
20260506090540 13 329 14.5 25.7 0.00 0.00 0.00 75 1009.6
20260506090041 13 350 8.0 25.7 0.00 0.00 0.00 77 1009.6
20260506085549 13 11 14.5 25.7 0.00 0.00 0.00 76 1009.5
20260506085036 12 30 11.3 24.1 0.00 0.00 0.00 79 1009.5
20260506084540 12 18 16.1 30.6 0.00 0.00 0.00 77 1009.5
20260506084028 13 9 14.5 27.4 0.00 0.00 0.00 77 1009.4
20260506083537 13 344 16.1 27.4 0.00 0.00 0.00 78 1009.3
20260506083025 12 322 9.7 20.9 0.00 0.00 0.00 80 1009.3
20260506082533 12 348 9.7 25.7 0.00 0.00 0.00 81 1009.4
20260506082037 12 5 12.9 25.7 0.00 0.00 0.00 81 1009.4
20260506081525 12 32 14.5 24.1 0.00 0.00 0.00 81 1009.5
20260506081054 12 5 14.5 24.1 0.00 0.00 0.00 82 1009.4
20260506080521 12 360 9.7 25.7 0.00 0.00 0.00 83 1009.4
20260506073028 11 348 11.3 25.7 0.00 0.00 0.00 84 1009.3
20260506072537 11 327 12.9 24.1 0.00 0.00 0.00 84 1009.3
20260506072025 11 34 9.7 25.7 0.00 0.00 0.00 85 1009.2
20260506071531 11 313 16.1 25.7 0.00 0.00 0.00 85 1009.2
20260506071038 11 13 11.3 24.1 0.00 0.00 0.00 85 1009.2
20260506070528 11 13 12.9 29.0 0.00 0.00 0.00 84 1009.2
20260506062038 11 46 9.7 20.9 0.00 0.00 0.00 84 1009.0
20260506061528 11 333 12.9 24.1 0.00 0.00 0.00 84 1009.0
20260506061035 11 349 11.3 24.1 0.00 0.00 0.00 84 1009.0
20260506060525 11 13 8.0 19.3 0.00 0.00 0.00 84 1009.0
20260506051021 10 350 9.7 20.9 0.00 0.00 0.00 85 1009.0
20260506050530 11 5 6.4 19.3 0.00 0.00 0.00 84 1008.9
20260506045024 10 329 11.3 25.7 0.00 0.00 0.00 82 1009.0
20260506044532 10 9 9.7 22.5 0.00 0.00 0.00 82 1009.0
20260506044021 10 350 12.9 22.5 0.00 0.00 0.00 82 1009.0
20260506043530 10 15 8.0 19.3 0.00 0.00 0.00 82 1009.1
20260506043035 10 336 8.0 22.5 0.00 0.00 0.00 82 1009.0
20260506042524 10 355 11.3 22.5 0.00 0.00 0.00 82 1009.1
20260506042033 10 351 8.0 19.3 0.00 0.00 0.00 82 1009.1
20260506041542 10 350 9.7 19.3 0.00 0.00 0.00 82 1009.0
20260506041029 10 11 4.8 19.3 0.00 0.00 0.00 82 1009.1
20260506040534 10 329 11.3 19.3 0.00 0.00 0.00 82 1009.1
20260506040036 10 5 9.7 17.7 0.00 0.00 0.00 83 1009.1
20260506035524 10 340 6.4 17.7 0.00 0.00 0.00 82 1009.0
20260506035033 10 342 11.3 19.3 0.00 0.00 0.00 82 1009.2
20260506034522 10 355 8.0 19.3 0.00 0.00 0.00 82 1009.1
20260506034026 10 355 8.0 24.1 0.00 0.00 0.00 82 1009.2
20260506033535 10 5 11.3 24.1 0.00 0.00 0.00 82 1009.1
20260506033024 10 345 9.7 20.9 0.00 0.00 0.00 82 1009.2
20260506032533 10 5 9.7 20.9 0.00 0.00 0.00 82 1009.3
20260506032021 10 346 9.7 17.7 0.00 0.00 0.00 82 1009.3
20260506031526 10 323 8.0 17.7 0.00 0.00 0.00 82 1009.3
20260506031036 10 50 6.4 17.7 0.00 0.00 0.00 82 1009.4
20260506030544 10 64 8.0 19.3 0.00 0.00 0.00 81 1009.4
20260506030026 10 41 6.4 19.3 0.00 0.00 0.00 81 1009.5
20260506025530 10 35 8.0 17.7 0.00 0.00 0.00 80 1009.5
20260506025039 10 347 6.4 16.1 0.00 0.00 0.00 79 1009.5
20260506024548 10 17 6.4 17.7 0.00 0.00 0.00 78 1009.5
20260506024034 10 360 8.0 17.7 0.00 0.00 0.00 78 1009.5
20260506023523 10 53 8.0 22.5 0.00 0.00 0.00 78 1009.6
20260506023028 10 325 6.4 20.9 0.00 0.00 0.00 78 1009.5
20260506022536 10 336 9.7 20.9 0.00 0.00 0.00 79 1009.6
20260506022024 10 16 4.8 14.5 0.00 0.00 0.00 80 1009.7
20260506021534 10 346 6.4 14.5 0.00 0.00 0.00 81 1009.7
20260506021022 10 343 6.4 19.3 0.00 0.00 0.00 81 1009.7
20260506020527 10 5 8.0 19.3 0.00 0.00 0.00 82 1009.7
20260506020050 10 5 4.8 12.9 0.00 0.00 0.00 82 1009.8
20260506015538 9 54 4.8 14.5 0.00 0.00 0.00 82 1009.8
20260506015027 10 10 6.4 14.5 0.00 0.00 0.00 81 1009.8
20260506014531 9 19 6.4 14.5 0.00 0.00 0.00 81 1009.8
20260506014039 10 340 6.4 14.5 0.00 0.00 0.00 82 1009.8
20260506013528 10 9 4.8 14.5 0.00 0.00 0.00 81 1009.8
20260506013036 10 13 4.8 19.3 0.00 0.00 0.00 81 1009.8
20260506012525 10 9 6.4 19.3 0.00 0.00 0.00 80 1009.8
20260506012048 10 327 4.8 19.3 0.00 0.00 0.00 80 1009.8
20260506011536 10 348 6.4 17.7 0.00 0.00 0.00 80 1009.7
20260506011024 10 351 8.0 17.7 0.00 0.00 0.00 80 1009.7
20260506010533 10 5 4.8 17.7 0.00 0.00 0.00 79 1009.7
20260506010036 10 38 8.0 17.7 0.00 0.00 0.00 79 1009.8
20260506005521 10 338 4.8 12.9 0.00 0.00 0.00 79 1009.9
20260506005049 10 9 6.4 19.3 0.00 0.00 0.00 80 1009.9
20260506004537 10 26 9.7 19.3 0.00 0.00 0.00 80 1009.9
20260506004025 10 355 4.8 16.1 0.00 0.00 0.00 80 1010.0
20260506003550 10 22 6.4 16.1 0.00 0.00 0.00 79 1010.0
20260506003100 10 13 8.0 16.1 0.00 0.00 0.00 79 1010.1
20260506002529 10 9 6.4 20.9 0.00 0.00 0.00 79 1010.1
20260506002101 10 10 9.7 20.9 0.00 0.00 0.00 79 1010.2
20260506001524 10 31 8.0 16.1 0.00 0.00 0.00 80 1010.2
20260506001057 10 5 4.8 16.1 0.00 0.00 0.00 80 1010.3
20260506000526 10 17 6.4 17.7 0.00 0.00 0.00 80 1010.3
20260506000029 10 11 8.0 19.3 0.00 0.00 0.00 80 1010.4
20260505235538 10 339 6.4 20.9 0.00 0.00 0.00 79 1010.4
20260505235042 10 19 6.4 20.9 0.00 0.00 0.00 79 1010.4
20260505234530 9 360 4.8 17.7 0.00 0.00 0.00 79 1010.4
20260505234039 9 331 8.0 17.7 0.00 0.00 0.00 79 1010.5
20260505233529 9 348 4.8 16.1 0.00 0.00 0.00 79 1010.5
20260505233033 9 355 6.4 16.1 0.00 0.00 0.00 79 1010.5
20260505232522 9 345 8.0 19.3 0.00 0.00 0.00 78 1010.6
20260505232031 9 338 6.4 19.3 0.00 0.00 0.00 78 1010.6
20260505231520 9 344 4.8 14.5 0.00 0.00 0.00 78 1010.6
20260505231028 10 340 8.0 17.7 0.00 0.00 0.00 78 1010.7
20260505230533 10 44 4.8 17.7 0.00 0.00 0.00 78 1010.6
20260505230059 10 339 8.0 17.7 0.00 0.00 0.00 78 1010.7
20260505225547 10 5 4.8 22.5 0.00 0.00 0.00 78 1010.7
20260505225034 10 355 8.0 22.5 0.00 0.00 0.00 78 1010.7
20260505224523 10 24 4.8 17.7 0.00 0.00 0.00 77 1010.7
20260505224027 10 360 6.4 17.7 0.00 0.00 0.00 78 1010.7
20260505223535 10 11 6.4 16.1 0.00 0.00 0.00 77 1010.7
20260505223025 10 344 6.4 22.5 0.00 0.00 0.00 77 1010.8
20260505222533 10 339 4.8 22.5 0.00 0.00 0.00 77 1010.8
20260505222023 10 350 6.4 19.3 0.00 0.00 0.00 77 1010.8
20260505221528 10 355 3.2 19.3 0.00 0.00 0.00 77 1010.9
20260505221034 10 5 4.8 16.1 0.00 0.00 0.00 77 1010.9
20260505220524 10 5 4.8 16.1 0.00 0.00 0.00 76 1010.9
20260505220024 10 14 6.4 19.3 0.00 0.00 0.00 76 1011.0
20260505215549 10 5 8.0 19.3 0.00 0.00 0.00 76 1011.0
20260505215033 10 55 6.4 19.3 0.00 0.00 0.00 76 1011.0
20260505214521 10 32 9.7 19.3 0.00 0.00 0.00 76 1011.0
20260505214030 10 59 6.4 16.1 0.00 0.00 0.00 76 1011.1
20260505213539 10 55 4.8 16.1 0.00 0.00 0.00 76 1011.0
20260505213023 10 19 6.4 20.9 0.00 0.00 0.00 76 1011.0
20260505212532 10 9 8.0 20.9 0.00 0.00 0.00 75 1011.1
20260505212039 10 36 8.0 19.3 0.00 0.00 0.00 75 1011.1
20260505211528 10 360 8.0 19.3 0.00 0.00 0.00 75 1011.1
20260505211037 10 32 6.4 14.5 0.00 0.00 0.00 76 1011.1
20260505210522 10 360 4.8 17.7 0.00 0.00 0.00 75 1011.1
20260505210046 10 9 8.0 17.7 0.00 0.00 0.00 75 1011.2
20260505205558 10 25 6.4 16.1 0.00 0.00 0.00 75 1011.2
20260505205046 10 360 6.4 20.9 0.00 0.00 0.00 76 1011.2
20260505204551 10 14 4.8 20.9 0.00 0.00 0.00 76 1011.2
20260505204019 10 40 8.0 22.5 0.00 0.00 0.00 75 1011.2